• In Russia
  • List of Countries
  • For 7 days
  • Water Temperature
  • Satellite Maps
  • Weather Map
  • Weather Widgets
  • user-avatar
    Login

    Hourly Weather Darwin

    Today, 5 December, Monday

    Time Temperature Precipitation Wind Pressure Humidity
    00:00 +30°C° 0 mm 3 mps 756 mmHg 69%
    01:00 +30°C° 0 mm 3 mps 756 mmHg 71%
    02:00 +30°C° 0 mm 3 mps 756 mmHg 73%
    03:00 +29°C° 0 mm 2 mps 756 mmHg 76%
    04:00 +29°C° 0 mm 2 mps 756 mmHg 78%
    05:00 +29°C° 0 mm 1 mps 756 mmHg 80%
    06:00 +29°C° 0 mm 1 mps 756 mmHg 81%
    07:00 +31°C° 0 mm 1 mps 757 mmHg 72%
    08:00 +33°C° 0 mm 1 mps 757 mmHg 62%
    09:00 +36°C° 0 mm 1 mps 757 mmHg 52%
    10:00 +37°C° 0.1 mm 1 mps 757 mmHg 48%
    11:00 +39°C° 0.1 mm 1 mps 756 mmHg 44%
    12:00 +41°C° 0.1 mm 2 mps 756 mmHg 40%
    13:00 +40°C° 0.3 mm 2 mps 755 mmHg 41%
    14:00 +39°C° 0.3 mm 3 mps 755 mmHg 43%
    15:00 +38°C° 0.3 mm 3 mps 755 mmHg 45%
    16:00 +37°C° 0.2 mm 3 mps 754 mmHg 49%
    17:00 +36°C° 0.2 mm 3 mps 754 mmHg 53%
    18:00 +35°C° 0.2 mm 3 mps 754 mmHg 57%
    19:00 +34°C° 0 mm 3 mps 755 mmHg 62%
    20:00 +33°C° 0 mm 3 mps 755 mmHg 67%
    21:00 +31°C° 0 mm 3 mps 756 mmHg 71%
    22:00 +31°C° 0.1 mm 3 mps 756 mmHg 73%
    23:00 +30°C° 0.1 mm 3 mps 756 mmHg 74%

    Tomorrow, 6 December, Tuesday

    Time Temperature Precipitation Wind Pressure Humidity
    00:00 +30°C° 0.1 mm 3 mps 756 mmHg 75%
    01:00 +30°C° 0.5 mm 2 mps 756 mmHg 77%
    02:00 +29°C° 0.5 mm 2 mps 756 mmHg 79%
    03:00 +29°C° 0.5 mm 1 mps 756 mmHg 80%
    04:00 +29°C° 0.4 mm 1 mps 756 mmHg 82%
    05:00 +29°C° 0.4 mm 1 mps 757 mmHg 83%
    06:00 +28°C° 0.4 mm 1 mps 757 mmHg 84%
    07:00 +31°C° 0 mm 1 mps 757 mmHg 74%
    08:00 +33°C° 0 mm 1 mps 757 mmHg 63%
    09:00 +35°C° 0 mm 1 mps 758 mmHg 53%
    10:00 +36°C° 0.1 mm 1 mps 757 mmHg 49%
    11:00 +38°C° 0.1 mm 2 mps 757 mmHg 46%
    12:00 +39°C° 0.1 mm 2 mps 756 mmHg 42%
    13:00 +39°C° 0.1 mm 2 mps 756 mmHg 44%
    14:00 +38°C° 0.1 mm 2 mps 755 mmHg 46%
    15:00 +38°C° 0.1 mm 3 mps 755 mmHg 47%
    16:00 +37°C° 0.2 mm 3 mps 755 mmHg 52%
    17:00 +35°C° 0.2 mm 2 mps 755 mmHg 56%
    18:00 +34°C° 0.2 mm 2 mps 755 mmHg 60%
    19:00 +34°C° 0.2 mm 2 mps 755 mmHg 63%
    20:00 +32°C° 0.2 mm 2 mps 756 mmHg 67%
    21:00 +31°C° 0.2 mm 2 mps 756 mmHg 71%
    22:00 +31°C° 0 mm 2 mps 756 mmHg 72%
    23:00 +30°C° 0 mm 2 mps 756 mmHg 74%

    Day after tomorrow, 7 December, Wednesday

    Time Temperature Precipitation Wind Pressure Humidity
    00:00 +30°C° 0 mm 2 mps 756 mmHg 75%
    01:00 +30°C° 0.2 mm 2 mps 756 mmHg 76%
    02:00 +30°C° 0.2 mm 2 mps 756 mmHg 77%
    03:00 +29°C° 0.2 mm 2 mps 756 mmHg 78%
    04:00 +29°C° 0 mm 1 mps 756 mmHg 80%
    05:00 +29°C° 0 mm 1 mps 756 mmHg 82%
    06:00 +27°C° 0 mm 0 mps 756 mmHg 84%
    07:00 +31°C° 0 mm 1 mps 757 mmHg 73%
    08:00 +33°C° 0 mm 1 mps 757 mmHg 62%
    09:00 +36°C° 0 mm 1 mps 757 mmHg 51%
    10:00 +37°C° 0 mm 1 mps 757 mmHg 46%
    11:00 +39°C° 0 mm 2 mps 756 mmHg 42%
    12:00 +40°C° 0 mm 2 mps 756 mmHg 37%
    13:00 +40°C° 0 mm 3 mps 755 mmHg 38%
    14:00 +41°C° 0 mm 4 mps 754 mmHg 40%
    15:00 +40°C° 0 mm 4 mps 754 mmHg 42%
    16:00 +38°C° 0 mm 4 mps 754 mmHg 47%
    17:00 +36°C° 0 mm 4 mps 754 mmHg 51%
    18:00 +35°C° 0 mm 3 mps 754 mmHg 56%
    19:00 +34°C° 0 mm 4 mps 755 mmHg 61%
    20:00 +33°C° 0 mm 4 mps 755 mmHg 66%
    21:00 +32°C° 0 mm 4 mps 756 mmHg 71%
    22:00 +31°C° 0 mm 3 mps 756 mmHg 73%
    23:00 +31°C° 0 mm 3 mps 756 mmHg 76%

    8 December, Thursday

    Time Temperature Precipitation Wind Pressure Humidity
    00:00 +30°C° 0 mm 2 mps 756 mmHg 78%
    01:00 +30°C° 0 mm 2 mps 756 mmHg 79%
    02:00 +30°C° 0 mm 2 mps 755 mmHg 81%
    03:00 +29°C° 0 mm 2 mps 755 mmHg 82%
    04:00 +29°C° 0 mm 2 mps 755 mmHg 83%
    05:00 +29°C° 0 mm 2 mps 755 mmHg 84%
    06:00 +29°C° 0 mm 2 mps 755 mmHg 84%
    07:00 +31°C° 0 mm 1 mps 756 mmHg 75%
    08:00 +33°C° 0 mm 1 mps 756 mmHg 65%
    09:00 +35°C° 0 mm 1 mps 756 mmHg 55%
    10:00 +36°C° 0.2 mm 1 mps 756 mmHg 52%
    11:00 +37°C° 0.2 mm 1 mps 755 mmHg 48%
    12:00 +39°C° 0.2 mm 2 mps 755 mmHg 45%
    13:00 +38°C° 0.6 mm 2 mps 754 mmHg 47%
    14:00 +38°C° 0.6 mm 3 mps 754 mmHg 49%
    15:00 +37°C° 0.6 mm 3 mps 753 mmHg 52%
    16:00 +36°C° 0.2 mm 3 mps 753 mmHg 55%
    17:00 +35°C° 0.2 mm 3 mps 753 mmHg 59%
    18:00 +34°C° 0.2 mm 4 mps 753 mmHg 63%
    19:00 +33°C° 0 mm 3 mps 754 mmHg 66%
    20:00 +31°C° 0 mm 3 mps 755 mmHg 70%
    21:00 +31°C° 0 mm 3 mps 755 mmHg 73%
    22:00 +30°C° 0 mm 3 mps 755 mmHg 74%
    23:00 +30°C° 0 mm 3 mps 755 mmHg 76%

    9 December, Friday

    Time Temperature Precipitation Wind Pressure Humidity
    00:00 +30°C° 0 mm 3 mps 755 mmHg 77%
    01:00 +30°C° 0 mm 3 mps 755 mmHg 79%
    02:00 +29°C° 0 mm 2 mps 755 mmHg 80%
    03:00 +29°C° 0 mm 2 mps 754 mmHg 81%
    04:00 +29°C° 0 mm 2 mps 755 mmHg 83%
    05:00 +29°C° 0 mm 1 mps 755 mmHg 84%
    06:00 +28°C° 0 mm 1 mps 755 mmHg 86%
    07:00 +30°C° 0 mm 1 mps 756 mmHg 76%
    08:00 +32°C° 0 mm 1 mps 756 mmHg 66%
    09:00 +35°C° 0 mm 1 mps 756 mmHg 56%
    10:00 +37°C° 0 mm 2 mps 756 mmHg 51%
    11:00 +38°C° 0 mm 2 mps 755 mmHg 45%
    12:00 +40°C° 0 mm 3 mps 755 mmHg 40%
    13:00 +39°C° 0.6 mm 3 mps 754 mmHg 45%
    14:00 +38°C° 0.6 mm 3 mps 754 mmHg 49%
    15:00 +36°C° 0.6 mm 4 mps 753 mmHg 54%
    16:00 +36°C° 0.3 mm 4 mps 754 mmHg 58%
    17:00 +35°C° 0.3 mm 4 mps 754 mmHg 61%
    18:00 +34°C° 0.3 mm 4 mps 754 mmHg 65%
    19:00 +33°C° 0.2 mm 4 mps 755 mmHg 68%
    20:00 +31°C° 0.2 mm 3 mps 755 mmHg 71%
    21:00 +30°C° 0.2 mm 2 mps 756 mmHg 74%
    22:00 +30°C° 0.2 mm 2 mps 756 mmHg 75%
    23:00 +30°C° 0.2 mm 2 mps 756 mmHg 76%

    10 December, Saturday

    Time Temperature Precipitation Wind Pressure Humidity
    00:00 +30°C° 0.2 mm 2 mps 756 mmHg 77%
    01:00 +29°C° 0.3 mm 2 mps 756 mmHg 78%
    02:00 +29°C° 0.3 mm 1 mps 755 mmHg 79%
    03:00 +29°C° 0.3 mm 1 mps 755 mmHg 80%
    04:00 +29°C° 0 mm 1 mps 755 mmHg 81%
    05:00 +28°C° 0 mm 1 mps 756 mmHg 82%
    06:00 +28°C° 0 mm 1 mps 756 mmHg 83%
    07:00 +31°C° 0 mm 1 mps 756 mmHg 71%
    08:00 +34°C° 0 mm 1 mps 756 mmHg 60%
    09:00 +34°C° 0 mm 0 mps 757 mmHg 49%
    10:00 +39°C° 0 mm 1 mps 756 mmHg 44%
    11:00 +40°C° 0 mm 2 mps 756 mmHg 39%
    12:00 +41°C° 0 mm 2 mps 755 mmHg 34%
    13:00 +40°C° 0.1 mm 3 mps 755 mmHg 37%
    14:00 +39°C° 0.1 mm 3 mps 754 mmHg 39%
    15:00 +38°C° 0.1 mm 3 mps 754 mmHg 42%
    16:00 +37°C° 0.1 mm 3 mps 754 mmHg 48%
    17:00 +36°C° 0.1 mm 3 mps 754 mmHg 53%
    18:00 +35°C° 0.1 mm 3 mps 754 mmHg 58%
    19:00 +34°C° 0 mm 3 mps 755 mmHg 63%
    20:00 +32°C° 0 mm 2 mps 755 mmHg 67%
    21:00 +31°C° 0 mm 2 mps 755 mmHg 71%
    22:00 +31°C° 0 mm 2 mps 755 mmHg 72%
    23:00 +31°C° 0 mm 2 mps 755 mmHg 73%
    Show more